User: anonymous   Login
Location: Unspecified
(0.0000°N, 0.0000°E)
Time: 03:59:33
(UTC+00:00)
Language:

ATS 6 - Orbit

View from above orbital plane
View from above orbital plane
View from above satellite
View from above satellite

Ground track
Ground track

The orbit data is extracted from the following two-line orbital elements,

1  7318U 74039A   17327.43868707 -.00000217 +00000-0 +00000-0 0  9996
2  7318 009.3004 306.0944 0030769 236.3144 304.9463 01.01981111090103
Epoch (UTC): 23 November 2017 10:31:42
Eccentricity: 0.0030769
inclination: 9.3004°
perigee height: 35185 km
apogee height: 35442 km
right ascension of ascending node: 306.0944°
argument of perigee: 236.3144°
revolutions per day: 1.01981111
mean anomaly at epoch: 304.9463°
orbit number at epoch: 9010

The dashed part of the orbit path shows where the satellite is in the earth's shadow,  

DLR